Regional Weather Roundup
Issued by NWS Northern Indiana

Home | Current Version | Previous Version | Text Only | Print | Product List | Glossary Off
Versions: 1 2 3 4 5 6 7 8 9 10 11 12 13 14 15 16 17 18 19 20 21 22 23 24 25 26 27 28 29 30 31 32 33 34 35 36 37 38 39 40 41 42 43 44 45 46 47 48 49 50

000
ASUS43 KIWX 292210
RWRIWX

KIWX WEATHER ROUNDUP
NATIONAL WEATHER SERVICE NORTHERN INDIANA
500 PM EST THU JAN 29 2015

NOTE: "FAIR" INDICATES FEW OR NO CLOUDS BELOW 12,000 FEET WITH NO
SIGNIFICANT WEATHER AND/OR OBSTRUCTIONS TO VISIBILITY.

* THESE STATIONS ARE NOT UNDER NWS QUALITY CONTROL. THEY ALSO MAY NOT
  REPORT WEATHER SUCH AS PRECIPITATION OR FOG.

INZ001>027-292300-
NORTHERN INDIANA

CITY           SKY/WX    TMP DP  RH WIND       PRES   REMARKS
GARY*          CLOUDY    36  25  64 NW8G23    30.05R
VALPARAISO     CLOUDY    33  27  78 NW13G23   30.04R WCI  24
MICHIGAN CITY* CLOUDY    34  27  75 NW14G20   30.03R WCI  24
LAPORTE*       MIX PCPN  34  32  91 NW13G22   30.02R WCI  25
KNOX*          CLOUDY    32  23  69 NW16G22   30.02R WCI  21
SOUTH BEND     CLOUDY    33  29  85 NW16G26   29.99R FOG     WCI  23
ELKHART*       DRIZZLE   32  28  86 NW12G21   29.98R WCI  23
GOSHEN         FRZ RAIN  33  29  85 NW13      29.95R FOG     WCI  24
MONTICELLO*    CLOUDY    33  29  86 NW14      30.04R WCI  23
LOGANSPORT*    CLOUDY    32  30  93 NW13G22   30.04R FOG     WCI  22
ROCHESTER*     CLOUDY    34  32  93 W12       30.01R FOG     WCI  25
WARSAW*        RAIN      32  30  93 NW15G21   29.96R WCI  22
ANGOLA*        CLOUDY    32  28  86 NW15      29.89R WCI  22
FORT WAYNE     DRIZZLE   34  29  82 NW18G26   29.94R WCI  23
HUNTINGTON*    CLOUDY    32  27  79 NW14G20   29.97R HAZE    WCI  22
PERU/GRISSOM   FRZ RAIN  32  28  86 NW21      30.01R FOG     WCI  20
MARION*        CLOUDY    32  30  92 NW15G23   30.00R FOG     WCI  22

$$
INZ028>050-292300-
CENTRAL INDIANA

CITY           SKY/WX    TMP DP  RH WIND       PRES   REMARKS
LAFAYETTE      CLOUDY    32  28  85 NW13G22   30.08R FOG     WCI  22
KOKOMO*        CLOUDY    34  28  80 NW18G26   30.01R WCI  23
MUNCIE*        CLOUDY    33  29  85 NW18      29.98R FOG     WCI  22
INDIANAPOLIS   DRIZZLE   32  28  85 NW21G30   30.05R FOG     WCI  20

$$
MIZ043>046-050>051-056>058-064>065-071>073-077>080-292300-
SOUTHWEST LOWER MICHIGAN

CITY           SKY/WX    TMP DP  RH WIND       PRES   REMARKS
BATTLE CREEK   CLOUDY    33  28  81 NW16G22   29.91R HAZE    WCI  23
BENTON HARBOR  CLOUDY    33  29  85 NW14G23   29.99R WCI  23
COLDWATER*     CLOUDY    32  28  86 NW12      29.90R WCI  23
HILLSDALE*     CLOUDY    33  29  87 NW15G23   29.86R WCI  22
HOLLAND        CLOUDY    34  26  72 NW12G23   29.97R WCI  25
GRAND RAPIDS   FLURRIES  32  27  81 NW18      29.92R WCI  20
KALAMAZOO      CLOUDY    33  27  78 NW16      29.93R HAZE    WCI  23
STURGIS*       CLOUDY    32  28  86 NW16G26   29.92R WCI  21
THREE RIVERS*  CLOUDY    33  28  79 NW17G23   29.93R WCI  22

$$
OHZ001>008-015>018-024>025-292300-
NORTHWEST OHIO

CITY           SKY/WX    TMP DP  RH WIND       PRES   REMARKS
WAUSEON*       FLURRIES  34  32  93 NW14      29.87R WCI  24
DEFIANCE       CLOUDY    35  30  82 W10       29.89R WCI  27
FINDLAY        LGT SNOW  35  31  85 W15       29.85R FOG     WCI  25
TOLEDO EXPRESS LGT SNOW  33  30  88 NW10      29.85R FOG     WCI  25
TOLEDO METCALF LGT SNOW  33  30  88 NW15      29.85R FOG     WCI  23
LIMA           CLOUDY    35  32  88 W17       29.88R FOG     WCI  25

$$
AND FOR LAKE MICHIGAN COASTAL AND OPEN LAKE BUOY OBSERVATIONS

STATION/POSITION TEMP    WIND        PRES    VSBY  WAVE
                 AIR SEA DIR/SP/G                  HT/PER
                 (F)     (DEG/KT/KT) (MB)    (MI)  (FT/S)
CALUMET HARBOR    35     290/  9/ 14   N/A
MICHIGAN CITY     34     310/ 24/ 27   N/A
SAINT JOSEPH      34     320/ 21/ 25 1016.6R

$$
&&



USA.gov is the U.S. government's official web portal to all federal, state and local government web resources and services.